Location: Buffign�court
(47.8126°N, 6.0176°E)
Time: 19:38:11
(UTC+00:00)

Cosmos 1000 Rocket - Pass Details

Date: 16 June 2021
Orbit: 954 x 991 km, 82.9° (Epoch: 31 July)

Event Time Altitude Azimuth Distance (km) Brightness Sun altitude
Exits shadow 21:10:34 - 184° (S) 2,943 6.5 -11.6°
Reaches altitude 10° 21:11:15 10° 184° (S) 2,685 6.3 -11.7°
Maximum altitude 21:17:24 84° 98° (E) 968 4.5 -12.2°
Drops below altitude 10° 21:23:34 10° 10° (N) 2,695 7.6 -12.8°
Sets 21:26:04 0° 10° (N) 3,645 8.3 -13.0°
